User: anonymous   Login
Location: Ash Swamp
(41.5170°N, 74.6157°W)
Time: 22:31:40
(UTC+00:00)
Language:

USA 245 - Orbit

View from above orbital plane
View from above orbital plane
View from above satellite
View from above satellite

Ground track
Ground track

The orbit data is extracted from the following two-line orbital elements,

1 39232U 13043A   20258.83105815 0.00008100  00000-0  86936-4 0    06
2 39232  97.9097 319.0035 0529667 107.1392 252.8607 14.76602117    06
Epoch (UTC): 14 September 2020 19:56:43
Eccentricity: 0.0529667
inclination: 97.9097°
perigee height: 268 km
apogee height: 1012 km
right ascension of ascending node: 319.0035°
argument of perigee: 107.1392°
revolutions per day: 14.76602117
mean anomaly at epoch: 252.8607°
orbit number at epoch: 0

The dashed part of the orbit path shows where the satellite is in the earth's shadow,  

DLR